Regional Weather Roundup
Issued by NWS

Home | Current Version | Previous Version | Graphics & Text | Print | Product List | Glossary On
Versions: 1 2 3 4 5 6 7 8 9 10 11 12 13 14 15 16 17 18 19 20 21 22 23 24 25 26 27 28 29 30 31 32 33 34 35 36 37 38 39 40 41 42 43 44 45 46 47 48 49 50
000
ASUS43 KMKX 250500
RWRWI

WISCONSIN REGIONAL WEATHER ROUNDUP
NATIONAL WEATHER SERVICE MILWAUKEE/SULLIVAN WI
1200 AM CDT FRI APR 25 2014

NOTE: "FAIR" INDICATES FEW OR NO CLOUDS BELOW 12,000 FEET WITH NO
SIGNIFICANT WEATHER AND/OR OBSTRUCTIONS TO VISIBILITY.

WIZ001-002-006>008-014>016-023>028-250600-
NORTHWEST WISCONSIN

CITY           SKY/WX    TMP DP  RH WIND       PRES   REMARKS
SUPERIOR ARPT  CLOUDY    32  32 100 NE6       29.69F WCI  26
ASHLAND        MIX PCPN  34  34 100 NE5       29.68F FOG     WCI  30
HAYWARD        CLOUDY    39  38  96 VRB3      29.67F
SIREN          CLOUDY    37  36  98 SW3       29.70F
RICE LAKE      CLOUDY    41  39  95 W6        29.71S
LADYSMITH      CLOUDY    42  41  98 S6        29.70S FOG
EAU CLAIRE     CLOUDY    43  40  89 W6        29.71R
MENOMONIE      CLOUDY    42  42  99 W9        29.72S
NEW RICHMOND   CLOUDY    40  39  94 SW5       29.72S
OSCEOLA        CLOUDY    40  39  97 CALM      29.74F
$$

WIZ003>005-009-010-017-018-250600-
NORTH CENTRAL WISCONSIN

CITY           SKY/WX    TMP DP  RH WIND       PRES   REMARKS
WOODRUFF       DRIZZLE   37  35  93 SE6       29.69F WCI  32
RHINELANDER    LGT RAIN  35  34  96 SE6       29.70S FOG     WCI  30
EAGLE RIVER    RAIN      34  34  99 SE6G17    29.70R WCI  29
LAND O LAKES   LGT SNOW  34  33  96 SE12G18   29.71F WCI  26
PHILLIPS       DRIZZLE   37  37  98 SE7       29.68S WCI  32
TOMAHAWK       DRIZZLE   36  35  94 CALM      29.70S
MEDFORD        DRIZZLE   38  38  98 SW3       29.68F
MERRILL        DRIZZLE   38  37  98 SE3       29.70R
$$

WIZ029-030-035-036-043>047-250600-
CENTRAL WISCONSIN

CITY           SKY/WX    TMP DP  RH WIND       PRES   REMARKS
WAUSAU         LGT RAIN  38  38 100 SE5       29.68R FOG     WCI  34
MOSINEE        DRIZZLE   37  37 100 SE7G16    29.69F WCI  32
MARSHFIELD     CLOUDY    41  39  93 CALM      29.68F FOG
STEVENS POINT  DRIZZLE   38  37  96 SE6       29.69F WCI  33
WAUPACA        CLOUDY    43  39  87 E6        29.69F
WAUTOMA        NOT AVBL
WISC RAPIDS    CLOUDY    41  40  96 CALM      29.69F FOG
CAMP DOUGLAS   CLOUDY    45  45 100 W8        29.69S
$$

WIZ011>013-019>022-031-037>040-048>050-250600-
NORTHEAST WISCONSIN

CITY           SKY/WX    TMP DP  RH WIND       PRES   REMARKS
ANTIGO         LGT SNOW  36  35  95 SE20G26   29.69F WCI  25
STURGEON BAY   CLOUDY    41  34  75 SE8       29.76F
GREEN BAY      LGT RAIN  42  38  85 E13       29.72F
MANITOWOC      NOT AVBL
APPLETON       LGT RAIN  41  36  81 SE13      29.70F
CLINTONVILLE   CLOUDY    39  37  93 E6        29.71F WCI  35
OSHKOSH        CLOUDY    45  35  68 SE8       29.68F
$$

WIZ032>034-041-042-053>061-250600-
SOUTHWEST WISCONSIN

CITY           SKY/WX    TMP DP  RH WIND       PRES   REMARKS
LA CROSSE      CLOUDY    46  40  79 NW10      29.73R
SPARTA         CLOUDY    44  42  91 W3        29.72S
VIROQUA        CLOUDY    44  44  98 NW13      29.71S
BOSCOBEL       CLOUDY    49  44  83 W5        29.72R
PRAIRIE DU CHI CLOUDY    47  42  82 NW7       29.73R
PLATTEVILLE    MOCLDY    48  47  95 NW15      29.70R
$$

WIZ056-057-062-063-064-067-068-250600-
SOUTH CENTRAL WISCONSIN

CITY           SKY/WX    TMP DP  RH WIND       PRES   REMARKS
BARABOO/DELLS  DRZL/FOG  46  44  95 CALM      29.67S VSB 1/2
LONE ROCK      CLOUDY    49  46  90 NW14      29.69R
WATERTOWN      LGT RAIN  46  41  83 E5        29.69S
MADISON        CLOUDY    50  48  93 CALM      29.68R
MIDDLETON      CLOUDY    51  50  95 SW3       29.68R
MONROE         CLOUDY    50  50 100 W3        29.67R FOG
JANESVILLE     RAIN      52  45  76 SE9       29.68S
$$

WIZ051-052-058>065-066-070>072-250600-
SOUTHEAST WISCONSIN

CITY           SKY/WX    TMP DP  RH WIND       PRES   REMARKS
MILWAUKEE      LGT RAIN  45  35  68 SE15G21   29.71F
WAUKESHA       LGT RAIN  43  36  75 SE6       29.72R
MILWAUKEE/TIMM RAIN      45  34  65 SE6       29.72F
RACINE         LGT RAIN  45  35  68 SE12      29.70F
BURLINGTON     LGT RAIN  46  38  72 MISG      29.69S
KENOSHA        LGT RAIN  46  36  68 SE9       29.68F
FOND DU LAC    LGT RAIN  44  36  73 SE12      29.68F
SHEBOYGAN      LGT RAIN  42  34  73 SE9       29.73F
WEST BEND      LGT RAIN  41  34  75 CALM      29.72S
JUNEAU         LGT RAIN  45  38  76 SE20      29.67F
$$

LSZ147-162-250600-
LAKE SUPERIOR

STATION/POSITION TIME  TEMP    WIND        PRES    WAVE
                       AIR SEA DIR/SP/G            HT/PER
                 (UTC) (F)     (DEG/KT/KT) (MB)    (FT/S)
DEVILS ISLAND    0400   33     100/ 18/ 21 1007.1F
PORT WING        0440   33      30/  8/ 11 1005.4F
SAXON HARBOR     0400          200/  1/  4 1006.1
$$

LMZ867-665-643>646-250600-
LAKE MICHIGAN

STATION/POSITION TIME  TEMP    WIND        PRES    WAVE
                       AIR SEA DIR/SP/G            HT/PER
                 (UTC) (F)     (DEG/KT/KT) (MB)    (FT/S)
NORTHPORT PIER   0400   38      90/ 16/ 23 1010.2F
SISTER BAY       0423   40      90/ 11/ 16   N/A
KEWAUNEE LAKESHO 0400   40      90/  8/ 10 1008.8F
SHEBOYGAN LAKESH 0400   42     110/ 11/ 11 1007.9F
PORT WASHINGTON  0440   41     150/  1/  4 1007.5F
MILWAUKEE LAKESH 0400   44     180/  2/  3   N/A
KENOSHA   LAKESH 0400   43     130/ 13/ 15   N/A
$$

TC  - TEMPERATURE IN CELSIUS
VSB - VISIBILITY IN STATUTE MILES
WCI - WIND CHILL INDEX
HX  - HEAT INDEX




USA.gov is the U.S. government's official web portal to all federal, state and local government web resources and services.